Current Version              Previous Version:    01  02  03  04  05  06  07  08  09  10  11  12  13  14  15  16  17  18  19  20  21  22  23  24  25  26  27  28  29  30  
   31  32  33  34  35  36  37  38  39  40  41  42  43  44  45  46  47  48  49  50  51  52  53  54  55  56  57  58  59  60  

[Printable]
315
ASUS44 KEWX 191402
RWRTX
SOUTH TEXAS REGIONAL WEATHER ROUNDUP
NATIONAL WEATHER SERVICE AUSTIN/SAN ANTONIO TX
800 AM CST FRI DEC 19 2014

NOTE: "FAIR" INDICATED FEW OR NO CLOUDS BELOW 12,000 FEET WITH NO
SIGNIFICANT WEATHER AND/OR OBSTRUCTIONS TO VISIBILITY.

* - THESE STATIONS ARE NOT NWS OR FAA STATIONS...AND ARE NOT SUBJECT
    TO NWS AND FAA QUALITY CONTROL.

TXZ171-172-183>190-191500-
TEXAS HILL COUNTRY AND EDWARDS PLATEAU

CITY           SKY/WX    TMP DP  RH WIND       PRES   REMARKS
JUNCTION       CLOUDY    48  45  89 NE6       30.14R WCI  45
*LLANO         CLOUDY    46  46 100 CALM      30.17R
BURNET         LGT RAIN  47  45  93 N9        30.13R WCI  43
*HORSESHOE BAY RAIN      48  48 100 NW5       30.13R WCI  46
*KERRVILLE     CLOUDY    49  46  91 N8        30.11R WCI  45
*FREDERICKSBRG CLOUDY    46  45  93 NE7       30.11R WCI  43
*ROCKSPRINGS   MOCLDY    48  46  93 NE8       30.11R FOG     WCI  45
*BOERNE STAGE  CLOUDY    46  45  93 N9        30.11R WCI  42
*CASTROVILLE   CLOUDY    53  51  95 NE9       30.09R
HONDO          LGT RAIN  53  49  86 N10       30.10R FOG
*UVALDE        CLOUDY    53  49  88 NE9       30.08R
DEL RIO        CLOUDY    57  51  80 SW6       30.06R
LAUGHLIN AFB   CLOUDY    58  52  80 N6        30.07R
CARRIZO SPRGS  CLOUDY    54  54 100 E5        30.06R FOG
$$

TXZ173-191>194-202-209-217>225-228-191500-
CENTRAL AND SOUTH CENTRAL TEXAS

CITY           SKY/WX    TMP DP  RH WIND       PRES   REMARKS
GEORGETOWN     CLOUDY    48  46  93 NE10      30.09F WCI  44
AUSTIN/BERGSTM MOCLDY    49  49 100 N15       30.11R WCI  43
AUSTIN/MABRY   CLOUDY    49  47  93 N8        30.12S WCI  45
*AUSTIN/EXEC   CLOUDY    48  46  93 N14G20    30.12R WCI  43
*LAGO VISTA    DRIZZLE   49  47  95 NE13      30.10S WCI  43
SAN MARCOS     CLOUDY    50  46  87 N18       30.10R WCI  44
NEW BRAUNFELS  CLOUDY    51  32  48 N16       30.09R
RANDOLPH AFB   CLOUDY    51  48  92 N14G21    30.09R
PT SAN ANTONIO CLOUDY    52  49  91 N15       30.07R
SAN ANTONIO    DRIZZLE   52  48  86 N13       30.09R FOG
STINSON FIELD  CLOUDY    52  49  89 N9        30.07R
*PLEASANTON    CLOUDY    52  51  95 N12G20    30.07R FOG
*LA GRANGE     HVY RAIN  52  51  96 N12G17    30.08R
*GIDDINGS      RAIN      48  47  96 N12G24    30.15R WCI  44
*GONZALES      RAIN      51  50  97 N14G21    30.08R
$$

TXZ163>164-176>182-195>201-210>213-226-227-235-191500-
SOUTHEAST TEXAS

CITY           SKY/WX    TMP DP  RH WIND       PRES   REMARKS
COLLEGE STN    LGT RAIN  50  48  93 N17G25    30.13R WCI  44
*BRYAN         LGT RAIN  49  48  97 N13G20    30.15R WCI  44
*CALDWELL      HVY RAIN  48  48 100 N14G22    30.15R WCI  43
*CROCKETT      RAIN      54  52  94 N8        30.16R
*BRENHAM       HVY RAIN  53  52  97 N20       30.11R
HUNTSVILLE     HVY RAIN  51  50  96 VRB5      30.11R FOG
CONROE         RAIN      54  52  93 VRB7      30.05F FOG
HOUSTON BUSH   LGT RAIN  58  57  97 SE9       30.04R
HOUSTON HOBBY  HVY RAIN  60  59  96 NE5       30.05R FOG
*HOUSTON SW AP RAIN      51  51 100 N5        30.04R
PEARLAND       LGT RAIN  61  58  90 NE10      30.06R
HOUSTON HOOKS  NOT AVBL
ELLINGTON FLD  LGT RAIN  61  61 100 N6        30.06R
SUGAR LAND     RAIN      61  59  93 E8        30.03R FOG
*HOUSTON EXEC  LGT RAIN  55  55 100 N10       30.06R
*CLEVELAND MUN CLOUDY    55  55  99 CALM      30.06R
*WHARTON       RAIN      58  58  97 NE10      30.01F
*COLUMBUS      CLOUDY    54  53  98 N12       30.04R
$$

TXZ214>216-236>238-191500-
THE UPPER TEXAS COAST

CITY           SKY/WX    TMP DP  RH WIND       PRES   REMARKS
*ORANGE        DRIZZLE   58  57  99 NE6       30.07F
PORT ARTHUR    CLOUDY    60  58  92 NE10      30.04F
GALVESTON      CLOUDY    61  59  93 E18       30.02R
ANGLETON       RAIN      60  60 100 E12       30.00S
*BAY CITY        N/A     60  60 100 E12       29.99S
PALACIOS       RAIN      63  62  97 NE12      29.97S FOG
$$

TXZ229>234-239>247-191500-
TEXAS COASTAL BEND AND RIO GRANDE PLAINS

CITY           SKY/WX    TMP DP  RH WIND       PRES   REMARKS
VICTORIA       HVY RAIN  57  55  93 N12       30.02R FOG
*BEEVILLE      HVY RAIN  54  54 100 N16       30.01R
ROCKPORT       CLOUDY    66  64  93 MISG      29.97R
*PORT ARANSAS  CLOUDY    67  66  98 S5        29.96R FOG
*PORT LAVACA   HVY RAIN  60  60  99 N16       29.99R
*INGLESIDE     CLOUDY    66  65  94 S3        29.97R FOG
CORPUS CHRISTI CLOUDY    68  67  96 CALM      29.97R FOG
CORPUS NAS     CLOUDY    69  68  96 S5        29.97R
*ROBSTOWN      NOT AVBL
ALICE          LGT RAIN  60  58  92 N15       30.00R
KINGSVILLE NAS FOG       69  69 100 W5        29.98R VSB 1/2
COTULLA        CLOUDY    55  53  93 NE12      30.06R FOG
LAREDO         NOT AVBL
$$

TXZ248>255-191500-
DEEP SOUTH TEXAS

CITY           SKY/WX    TMP DP  RH WIND       PRES   REMARKS
BROWNSVILLE    CLOUDY    67  65  93 CALM      29.97R FOG
PORT ISABEL    CLOUDY    67  66  97 CALM      29.96R FOG
*SOUTH PADRE   CLOUDY   N/A N/A N/A CALM      29.96S
HARLINGEN      FOG       66  65  96 NW5       29.97R VSB 3/4
*HEBBRONVILLE  CLOUDY    61  60  98 NW7       30.01R
MCALLEN        CLOUDY    63  62  97 W5        30.00R FOG
*WESLACO       CLOUDY    64  61  92 CALM      29.97R FOG
FALFURRIAS     CLOUDY    67  65  94 CALM      29.98R
EDINBURG       CLOUDY    66  63  91 NW3       29.99R
*ZAPATA        CLOUDY    61  61 100 NW5       30.00R FOG
$$

TXZ213>215-236>238-242>244-246-247-251-254-255-191500-
CMAN STATIONS

STATION/POSITION TIME  TEMP    WIND        PRES    WAVE
                       AIR SEA DIR/SP/G            HT/PER
                 (UTC) (F)     (DEG/KT/KT) (MB)    (FT/S)
SABINE PASS      1300   58 61   50/  6/ 10 1016.8
SEA RIM ST PARK  1300   58      90/  8/  9 1018.0
NORTH JETTY/GLS  1300   61 62  110/ 21/ 24   N/A
EAGLE POINT      1300   61 62   90/ 14/ 18 1016.7
MORGANS POINT    1300   60      60/ 10/ 12 1016.6
MISSION/ARANSAS  1300   68     180/  3     1016.0
PORT O`CONNOR    1300          110/  7/  8   N/A
PORT ARANSAS     1300   67 66  160/  9/  9 1014.7
MALAQUITE BEACH  1300   67 69  180/  5/  6 1014.0
BAFFIN BAY       1300   68     180/  4/  4 1014.7
PORT ISABEL      1300   68 69  200/  3/  4 1014.6
$$

GMZ080-GMZ150>470-191500-
OFFSHORE BUOY REPORTS

STATION/POSITION TIME  TEMP    WIND        PRES    WAVE
                       AIR SEA DIR/SP/G            HT/PER
                 (UTC) (F)     (DEG/KT/KT) (MB)    (FT/S)
20 E GALVESTON   1400   62 65   70/ 17/ 19 1016.3    5/ 5
90 E PT ARANSAS  1400   72 72  160/ 12/ 14 1015.5    4/ 6
35 NE PT MANSFLD 1300   70 71  200/  6/  8 1014.4    3/ 6
200 E PT ISABEL  1300   74 73  170/ 14/ 17 1015.8    4/ 6
$$